Regional Weather Roundup
Issued by NWS Northern Indiana

Home | Current Version | Previous Version | Graphics & Text | Print | Product List | Glossary On
Versions: 1 2 3 4 5 6 7 8 9 10 11 12 13 14 15 16 17 18 19 20 21 22 23 24 25 26 27 28 29 30 31 32 33 34 35 36 37 38 39 40 41 42 43 44 45 46 47 48 49 50
000
ASUS43 KIWX 191910
RWRIWX

KIWX WEATHER ROUNDUP
NATIONAL WEATHER SERVICE NORTHERN INDIANA
200 PM EST MON FEB 19 2018

NOTE: "FAIR" INDICATES FEW OR NO CLOUDS BELOW 12,000 FEET WITH NO
SIGNIFICANT WEATHER AND/OR OBSTRUCTIONS TO VISIBILITY.

* THESE STATIONS ARE NOT UNDER NWS QUALITY CONTROL. THEY ALSO MAY NOT
  REPORT WEATHER SUCH AS PRECIPITATION OR FOG.

INZ001>027-192000-
NORTHERN INDIANA

CITY           SKY/WX    TMP DP  RH WIND       PRES   REMARKS
GARY*          CLOUDY    54  54 100 S9G23     29.80F
VALPARAISO     LGT RAIN  53  52  96 SW14      29.83F VSB 1/2
MICHIGAN CITY* DRIZZLE   50  50 100 S13       29.82F
LAPORTE*       LGT RAIN  49  49 100 SW10G17   29.83F VSB 1/4
SOUTH BEND     LGT RAIN  49  49 100 S13       29.84F FOG
GOSHEN         RAIN      54  52  93 S17       29.85F FOG
MONTICELLO*    RAIN      58  56  95 SW20G25   29.88S
LOGANSPORT*    LGT RAIN  55  55 100 SW18      29.90F
ROCHESTER*     LGT RAIN  59 N/A N/A SW16G26   29.89S
WARSAW*        RAIN      54  54 100 S9        29.88S
AUBURN*        RAIN      54  54 100 S7        29.91F
FORT WAYNE     LGT RAIN  59  57  93 S18       29.91F
HUNTINGTON*    RAIN      57  56  95 SW13G23   29.91F
PERU/GRISSOM   LGT RAIN  59  59 100 S18G35    29.90S
MARION*        LGT RAIN  57  57 100 SW18G25   29.94F

$$
INZ028>050-192000-
CENTRAL INDIANA

CITY           SKY/WX    TMP DP  RH WIND       PRES   REMARKS
LAFAYETTE      CLOUDY    60  57  89 SW13G29   29.89F
KOKOMO*        LGT RAIN  59  57  93 SW22G30   29.93S
MUNCIE*        LGT RAIN  63  57  81 SW17G33   29.95F
INDIANAPOLIS   LGT RAIN  61  59  93 SW21G29   29.98F

$$
MIZ043>046-050>051-056>058-064>065-071>073-077>080-192000-
SOUTHWEST LOWER MICHIGAN

CITY           SKY/WX    TMP DP  RH WIND       PRES   REMARKS
BATTLE CREEK   LGT RAIN  43  42  97 S9        29.86F FOG
BENTON HARBOR  LGT RAIN  47  45  93 SE7       29.81F
COLDWATER*     RAIN      48  48 100 S10G16    29.88S
HILLSDALE*     RAIN      45  45 100 S8G16     29.89F
HOLLAND        LGT RAIN  42  41  96 E6        29.84F VSB 3/4
GRAND RAPIDS   FOG       42  40  92 E7        29.86F VSB 3/4
KALAMAZOO      LGT RAIN  44  43  96 S5        29.86F VSB 1/2
STURGIS*       RAIN      49  48  99 S14       29.85F VSB 3/4
THREE RIVERS*  RAIN      45  45 100 S7        29.86F VSB<1/4

$$
OHZ001>008-015>018-024>025-192000-
NORTHWEST OHIO

CITY           SKY/WX    TMP DP  RH WIND       PRES   REMARKS
WAUSEON*       LGT RAIN  48  48 100 S12       29.91F VSB 1/4
DEFIANCE       LGT RAIN  53  52  96 S15G21    29.92F FOG
FINDLAY        LGT RAIN  53  50  89 SE9       29.97F FOG
TOLEDO EXPRESS LGT RAIN  52  52 100 S8        29.93F FOG
TOLEDO METCALF LGT RAIN  54  52  93 S16       29.95F FOG
LIMA           LGT RAIN  58  57  97 S14       29.98F FOG

$$
AND FOR LAKE MICHIGAN COASTAL AND OPEN LAKE BUOY OBSERVATIONS

STATION/POSITION TEMP    WIND        PRES    VSBY  WAVE
                 AIR SEA DIR/SP/G                  HT/PER
                 (F)     (DEG/KT/KT) (MB)    (MI)  (FT/S)
CALUMET HARBOR    50     180/  8/ 11 1008.0F
MICHIGAN CITY     51     170/ 16/ 20   N/A
BURNS HARBOR      51     190/ 16/ 19 1009.8F
SAINT JOSEPH      47     140/  2/  7 1009.8

$$
&&




USA.gov is the U.S. government's official web portal to all federal, state and local government web resources and services.